Regional Weather Roundup
Issued by NWS

Home | Current Version | Previous Version | Text Only | Print | Product List | Glossary On
Versions: 1 2 3 4 5 6 7 8 9 10 11 12 13 14 15 16 17 18 19 20 21 22 23 24 25 26 27 28 29 30 31 32 33 34 35 36 37 38 39 40 41 42 43 44 45 46 47 48 49 50
000
ASUS44 KBMX 201710
RWRAL

ALABAMA REGIONAL WEATHER ROUNDUP
NATIONAL WEATHER SERVICE BIRMINGHAM AL
1100 AM CST SAT JAN 20 2018

NOTE: "FAIR" INDICATES FEW OR NO CLOUDS BELOW 12,000 FEET
WITH NO SIGNIFICANT WEATHER AND/OR OBSTRUCTIONS TO VISIBILITY.

THE REMARK "TC" DENOTES TEMPERATURE IN DEGREES CELSIUS.

ALZ001>011-014-016>018-020-201800-
NORTH ALABAMA

CITY           SKY/WX    TMP DP  RH WIND       PRES   REMARKS
MUSCLE SHOALS  CLOUDY    57  30  35 SW7       30.26F
HUNTSVILLE     PTSUNNY   57  31  37 W7        30.27F
DECATUR        CLOUDY    55  28  35 SE5       30.27F
HALEYVILLE     FAIR      57  34  41 SW8       30.28F
GADSDEN        FAIR      53  27  36 VRB3      30.31F
$$

ALZ012-013-022-023-030>036-040>044-201800-
WEST CENTRAL ALABAMA

CITY           SKY/WX    TMP DP  RH WIND       PRES   REMARKS
TUSCALOOSA     PTSUNNY   57  27  31 S9        30.31S
DEMOPOLIS        N/A     59  29  31 S8        30.30F
$$

ALZ015-024>026-033>036-041>044-201800-
CENTRAL ALABAMA

CITY           SKY/WX    TMP DP  RH WIND       PRES   REMARKS
BIRMINGHAM     FAIR      56  26  31 SW9       30.32F
MONTGOMERY     CLOUDY    52  28  39 CALM      30.34F
SHELBY CO ARPT FAIR      57  27  31 SW6       30.31F
MAXWELL AFB    PTSUNNY   56  35  44 CALM      30.32F
GREENVILLE     FAIR      59  26  28 S9        30.31F
SELMA          CLOUDY    54  23  30 S3        30.32F
PRATTVILLE     CLOUDY    50  22  33 CALM      30.33F
BESSEMER       FAIR      56  28  34 S8        30.30F
TALLADEGA      CLOUDY    55  27  33 W10       30.32S
PELL CITY      MOSUNNY   54  25  32 SW8       30.32F
MARION         FAIR      54  32  43 S12       30.30F
SYLACAUGA      FAIR      58  32  37 SW8       30.32S
$$

ALZ019-021-028-029-037-038-045>048-201800-
EAST CENTRAL ALABAMA

CITY           SKY/WX    TMP DP  RH WIND       PRES   REMARKS
ANNISTON       CLOUDY    54  27  35 W9        30.30F
ALEXANDER CITY FAIR      53  34  49 SW9       30.31F
AUBURN         CLOUDY    51  30  44 W6        30.33F
$$

ALZ051>064-201800-
SOUTHWEST ALABAMA

CITY           SKY/WX    TMP DP  RH WIND       PRES   REMARKS
MOBILE         PTSUNNY   62  38  40 SE10      30.32S
BROOKLEY FIELD FAIR      56  34  43 CALM      30.33F
EVERGREEN      FAIR      60  29  30 SE7       30.33F
$$

ALZ049-050-065>069-201800-
SOUTHEAST ALABAMA

CITY           SKY/WX    TMP DP  RH WIND       PRES   REMARKS
DOTHAN         CLOUDY    58  35  42 VRB3      30.36F
OZARK          FAIR      59  34  38 E7        30.31F
TROY           CLOUDY    53  28  38 W3        30.34S
EUFAULA        CLOUDY    61  31  32 SE3       30.31F
$$



USA.gov is the U.S. government's official web portal to all federal, state and local government web resources and services.